Regional Weather Roundup
Issued by NWS

Home | Current Version | Previous Version | Text Only | Print | Product List | Glossary On
Versions: 1 2 3 4 5 6 7 8 9 10 11 12 13 14 15 16 17 18 19 20 21 22 23 24 25 26 27 28 29 30 31 32 33 34 35 36 37 38 39 40 41 42 43 44 45 46 47 48 49 50
000
ASUS43 KLSX 281310
RWRMO

WEATHER SUMMARY FOR MISSOURI
NATIONAL WEATHER SERVICE SPRINGFIELD MO
800 AM CDT TUE MAR 28 2017

NOTE: "FAIR" INDICATES FEW OR NO CLOUDS BELOW 12,000 FEET WITH NO
       SIGNIFICANT WEATHER AND/OR OBSTRUCTIONS TO VISIBILITY.
       CURRENT SKY AND/OR WEATHER CONDITIONS ARE NOT AVAILABLE FOR
       CHILLICOTHE AND FARMINGTON.

MOZ001>031-035>038-043-044-053-054-281400-
...NORTHERN AND WESTERN MISSOURI...

CITY           SKY/WX    TMP DP  RH WIND       PRES   REMARKS
KANSAS CTY INT DRIZZLE   48  46  93 NE7       30.06R
KANSAS C DTWN  CLOUDY    50  46  86 NE6       30.05R
LEE`S SUMMIT   CLOUDY    48  47  96 NE7       30.05R FOG
ST JOSEPH      CLOUDY    48  46  93 NE3       30.07R
CHILLICOTHE      N/A     48  46  93 N3        30.07R
KIRKSVILLE     CLOUDY    48  47  96 NE7       30.06R FOG

$$
MOZ066>068-077>081-088>096-101>105-281400-
...SOUTHWEST MISSOURI...

CITY           SKY/WX    TMP DP  RH WIND       PRES   REMARKS
SPRINGFIELD    CLOUDY    51  49  92 NE3       30.02R
JOPLIN         CLOUDY    51  48  89 E5        30.02R
BRANSON        CLOUDY    50  50 100 CALM      30.03R

$$
MOZ032>034-039>042-045>050-055>058-069>072-281400-
...CENTRAL MISSOURI...

CITY           SKY/WX    TMP DP  RH WIND       PRES   REMARKS
COLUMBIA       CLOUDY    50  49  96 E5        30.05R FOG
JEFFERSON CITY CLOUDY    53  48  83 E7        30.06R
ROLLA          CLOUDY    50  49  96 NE9       30.04R
SEDALIA        FOG       50  50 100 NE7       30.05R VSB 1/4
WHITEMAN AFB   CLOUDY    49  49 100 NE7       30.03R FOG
WARRENSBURG    CLOUDY    46  46 100 NE7       30.04F FOG
OSAGE BEACH    CLOUDY   N/A N/A N/A E7        30.05R HAZE

$$
MOZ051-052-059>065-281400-
...EAST CENTRAL MISSOURI...

CITY           SKY/WX    TMP DP  RH WIND       PRES   REMARKS
ST LOUIS INTL  CLOUDY    53  49  86 N6        30.06S
SPIRIT OF STL  CLOUDY    53  49  86 N7        30.05S
ST CHARLES     CLOUDY    52  50  93 N3        30.06R

$$
MOZ072>076-082>087-097>100-106>115-281400-
...SOUTH CENTRAL AND SOUTHEAST MISSOURI...

CITY           SKY/WX    TMP DP  RH WIND       PRES   REMARKS
CAPE GIRARDEAU CLOUDY    55  51  86 N6        30.02R
FARMINGTON     LGT RAIN  52  50  93 N7        30.04S FOG
POPLAR BLUFF   CLOUDY    56  53  90 N6        30.03R
WEST PLAINS    CLOUDY    53  51  93 NE5       30.04R

$$




USA.gov is the U.S. government's official web portal to all federal, state and local government web resources and services.